Theta_e
346 348 352 358 355 356 356 358 363 366 367 360 361 361 358 363 364 361 359 357 352 351 350 354 354 354 358 360 359 359 358 360 363 360 356 357 352 351 353 350 351 351 351 351 351 352 351 351 351 350 347 347 349 351 351 350 347 344 342 341 342 342 344 345 343 343 344 345 345 345 347 348 348 348 347 348 349 348 347 346 345 345 347 348 348 348 347 348 348 349 349 349 349 349 349 350 351
345 348 352 356 354 357 361 364 366 362 362 355 354 356 355 361 361 360 360 355 353 351 350 353 355 355 355 355 355 359 358 356 357 358 355 353 352 354 352 350 349 349 350 350 351 351 350 351 350 348 347 348 350 351 352 350 348 346 345 343 342 343 344 344 344 344 344 345 346 347 348 347 348 347 346 347 347 346 344 344 344 345 347 348 348 348 346 345 347 347 347 348 348 348 348 349 350
346 351 353 357 358 358 364 368 363 355 356 352 349 357 363 365 361 357 355 353 351 350 352 353 354 354 354 356 356 360 360 354 353 353 353 353 354 354 352 350 349 348 349 350 350 350 350 350 349 349 349 350 351 352 351 351 350 349 349 346 345 345 345 344 345 345 344 344 346 347 347 346 347 347 346 347 346 344 342 342 342 344 344 345 346 346 345 344 345 345 345 346 346 347 347 348 348
346 350 353 359 365 364 370 372 369 360 353 353 353 359 369 364 355 353 352 351 350 351 353 353 355 352 353 358 356 358 359 355 353 353 353 353 354 354 353 351 349 348 348 349 350 351 351 350 349 350 350 350 352 352 351 351 352 351 350 348 347 346 345 345 345 345 344 345 347 348 348 347 346 345 345 347 345 342 341 341 341 343 342 340 342 343 344 344 344 343 344 344 344 345 346 348 347
348 352 355 358 369 371 371 369 369 362 351 359 359 355 362 354 350 355 351 351 351 352 352 352 355 351 351 354 354 358 358 355 354 354 354 353 354 354 353 351 349 350 350 349 350 350 351 350 350 350 349 350 351 352 351 352 352 351 350 348 347 346 345 346 345 345 345 346 349 350 349 347 344 342 343 345 343 341 341 343 343 344 342 340 341 343 343 343 343 343 343 343 343 344 345 346 346
352 355 357 357 366 366 365 359 356 355 350 367 368 356 354 349 349 354 350 352 351 352 352 353 353 352 353 352 352 356 356 355 355 355 355 354 354 354 353 352 352 353 352 350 350 349 350 350 350 350 349 349 349 351 352 353 353 352 351 348 346 346 346 345 344 342 343 347 349 351 349 346 343 340 342 344 343 342 342 345 345 345 345 343 342 342 342 342 342 343 342 342 342 342 345 346 344
355 360 362 359 362 360 363 355 351 357 353 361 368 355 348 348 348 349 352 353 353 353 351 353 352 355 357 353 355 354 354 356 355 355 355 355 354 354 353 353 353 353 353 351 349 349 350 350 350 349 349 350 350 352 353 352 354 353 352 349 346 346 344 343 342 341 344 347 349 350 348 344 340 340 341 343 343 343 343 345 346 345 344 343 341 341 341 342 342 342 341 342 344 342 344 346 346
357 364 364 362 366 362 362 356 354 363 355 353 360 352 346 349 346 347 352 353 355 355 354 354 353 359 358 354 357 355 354 355 355 355 356 355 354 354 354 354 353 353 353 350 349 351 351 351 352 352 352 352 353 353 352 352 353 353 352 350 348 346 343 341 341 343 345 348 348 347 345 342 338 339 341 342 344 344 344 346 345 343 342 340 340 341 341 341 341 341 342 343 347 345 341 343 346
356 362 362 361 365 359 355 354 354 356 352 351 353 350 346 346 346 347 351 353 354 354 356 355 355 361 360 356 357 354 354 356 356 356 356 355 354 354 354 354 353 353 351 348 350 352 353 353 354 354 354 353 353 353 352 351 352 352 353 351 348 347 343 341 341 343 346 347 347 344 343 342 340 339 340 342 345 345 344 345 344 340 338 339 340 341 341 341 340 341 342 343 345 344 342 341 343
360 360 363 363 362 353 347 349 348 345 345 347 347 346 346 346 347 350 352 354 353 355 356 354 356 360 359 358 358 354 354 355 355 356 355 354 354 354 354 353 353 354 352 349 351 352 353 354 354 353 353 352 352 352 352 351 352 352 352 350 348 347 344 342 340 342 346 346 346 343 343 343 341 339 340 343 345 344 342 341 340 338 337 338 341 341 341 340 340 340 341 342 342 342 342 342 342
364 362 362 364 359 348 345 346 342 339 343 343 345 345 345 345 348 352 353 355 354 356 355 354 358 358 358 359 357 355 354 354 354 355 354 354 354 354 354 354 354 353 352 351 351 352 352 352 352 352 352 352 352 352 351 351 351 350 349 348 347 347 345 342 341 344 346 347 345 343 344 344 342 340 340 342 344 342 340 338 337 336 336 338 341 341 341 340 339 339 339 340 340 340 340 340 341
366 367 364 363 356 350 350 346 339 339 345 342 345 344 346 345 348 352 353 356 355 356 355 355 357 356 358 358 356 354 354 354 355 355 354 354 354 355 354 354 354 354 351 351 351 351 351 351 351 351 351 352 351 351 351 351 351 349 349 348 347 348 346 343 343 346 347 346 345 344 343 342 341 341 340 341 343 341 339 338 336 335 335 338 341 341 341 339 339 339 339 338 338 338 339 339 340
364 368 365 362 358 356 353 346 339 339 341 340 343 343 345 346 348 351 352 355 355 357 357 355 354 355 358 357 354 353 353 355 355 355 355 355 355 356 355 355 355 354 351 350 350 350 350 351 351 351 351 352 351 351 351 351 350 349 350 349 348 347 346 345 346 347 346 346 345 343 342 340 340 341 340 341 342 340 338 338 337 336 335 336 340 342 341 339 339 339 338 338 337 338 338 340 341
362 363 363 363 358 355 351 343 337 332 333 338 340 341 345 346 347 349 351 354 354 357 356 353 351 355 358 356 355 353 353 354 355 356 356 356 356 356 356 355 354 353 351 348 348 350 351 351 351 351 352 352 351 351 351 351 351 350 350 349 348 347 346 346 346 346 345 345 343 342 342 340 340 340 341 341 341 338 337 337 336 335 335 335 340 342 340 339 339 339 339 338 337 340 342 343 343
359 358 357 360 352 348 348 343 338 329 331 339 339 341 345 345 346 348 351 353 355 354 353 352 351 356 357 357 358 354 353 354 354 355 356 356 356 356 356 355 352 352 350 347 348 351 352 351 351 351 352 352 351 351 352 351 351 350 349 348 348 346 345 345 345 344 344 343 343 342 341 341 340 340 342 341 339 337 336 338 335 334 335 334 340 342 340 339 339 338 339 341 340 343 347 347 346
354 355 355 356 347 343 346 345 338 331 334 340 339 342 344 345 346 348 350 351 353 351 352 353 350 354 355 355 356 353 354 354 354 356 356 356 356 356 355 354 353 353 350 347 349 351 352 351 350 350 351 351 351 351 352 352 352 350 348 348 347 346 344 343 343 343 343 344 343 342 341 341 340 341 342 339 338 337 336 338 336 335 335 334 340 342 340 339 340 340 340 344 345 346 349 350 350
350 358 359 352 345 344 350 347 335 331 335 338 337 340 343 347 347 347 349 349 351 351 352 351 350 352 352 354 355 354 355 354 355 355 355 356 356 356 355 355 354 354 352 350 349 352 353 351 349 350 351 350 350 351 351 351 352 350 348 347 346 345 344 343 342 342 343 343 343 342 341 342 343 345 345 342 344 343 339 338 337 337 338 337 340 342 342 342 344 344 344 346 348 349 350 351 351
353 364 358 349 348 348 350 347 338 335 335 335 336 340 343 346 347 347 348 349 350 351 350 350 351 352 352 354 355 355 355 354 355 354 356 356 355 356 356 355 356 355 355 353 352 353 355 353 348 349 351 350 349 351 351 351 352 351 348 346 345 345 344 343 342 342 343 343 343 341 341 347 351 352 351 349 350 349 344 341 341 343 343 341 342 343 344 346 347 348 348 349 349 349 350 351 351
353 362 358 352 352 348 346 345 342 337 335 336 337 340 342 345 346 346 349 350 349 350 350 351 353 354 353 353 354 355 355 354 354 355 356 355 356 356 356 356 356 357 356 356 355 354 356 354 348 349 351 351 351 351 350 350 350 350 347 346 345 344 344 344 342 342 343 342 342 340 343 352 355 353 352 352 353 350 344 342 346 348 347 345 343 345 347 348 349 350 350 350 350 350 349 349 350
351 356 357 354 349 347 344 342 342 339 337 336 337 338 338 340 340 342 347 349 348 352 354 354 356 355 353 353 353 354 354 354 354 355 356 355 356 356 356 357 356 357 357 356 356 355 357 355 350 350 352 354 354 351 350 349 349 349 346 345 344 344 345 344 343 342 341 342 343 343 348 353 352 352 351 351 353 349 343 344 348 348 349 348 344 346 350 349 349 350 350 351 351 350 350 349 348
350 352 354 350 346 346 343 341 342 342 339 336 337 337 336 336 337 339 344 347 348 354 356 355 356 354 353 353 353 354 354 354 354 355 356 355 356 356 357 357 356 357 357 356 356 356 357 356 354 354 353 356 356 353 351 348 348 349 346 346 345 344 345 344 342 341 343 348 350 349 352 353 352 353 350 349 351 348 346 348 349 348 349 349 347 347 349 349 349 350 350 351 351 351 350 349 349
349 350 349 346 345 346 343 342 341 342 341 338 337 336 336 336 336 338 343 346 347 352 354 354 354 353 353 352 353 354 354 354 354 354 355 355 355 357 357 357 357 357 357 357 357 357 357 357 357 356 354 356 357 355 353 349 347 349 346 346 346 345 345 343 342 343 348 353 355 354 354 354 353 353 350 350 351 349 350 350 350 350 349 350 349 348 349 349 350 350 351 351 351 350 349 349 349
347 348 346 345 345 344 342 341 340 341 341 340 337 335 336 335 335 338 341 341 345 350 354 353 353 353 352 353 353 354 354 354 354 355 354 355 355 356 357 357 357 357 357 357 357 357 357 358 358 356 355 356 357 356 356 352 346 349 349 348 349 348 347 345 344 347 352 354 355 356 354 353 353 351 350 351 352 353 353 352 351 351 350 349 349 349 350 350 350 350 351 351 351 350 350 348 346
346 346 346 345 344 343 342 341 337 337 340 341 338 336 336 336 337 339 338 340 348 351 352 352 352 353 352 352 353 353 355 355 354 355 354 354 355 356 356 356 357 357 357 357 357 358 357 358 358 357 357 357 357 356 358 354 347 352 355 353 354 352 352 350 349 352 353 354 354 355 354 353 352 351 351 351 352 354 354 352 352 351 350 349 348 350 350 350 351 351 350 351 350 350 349 346 341
346 344 344 345 343 343 342 341 337 335 340 341 339 338 336 336 339 339 339 345 352 352 352 352 352 352 352 353 353 354 355 355 354 354 353 354 355 355 356 356 356 357 357 357 357 358 358 358 358 357 357 357 356 356 358 356 351 356 358 355 357 355 355 354 353 355 354 354 354 354 355 353 352 351 350 351 352 353 353 352 352 351 350 349 349 350 350 351 351 351 351 351 350 350 348 343 340
342 343 343 344 343 342 342 341 339 338 341 341 340 339 337 335 337 338 340 346 350 351 351 351 352 352 353 353 353 355 355 353 353 353 353 353 354 355 355 355 356 356 357 358 357 357 358 358 358 357 357 357 356 356 357 357 354 357 358 356 357 356 355 354 354 355 354 354 354 354 354 353 352 351 350 350 351 352 352 352 352 352 351 350 351 350 351 351 351 350 350 351 351 349 346 342 341
336 337 341 343 341 341 342 342 341 340 340 340 340 338 336 336 336 337 340 346 350 351 351 350 352 354 353 353 354 355 354 352 352 353 352 352 354 354 354 355 355 356 356 357 357 356 357 357 358 358 356 356 356 356 356 357 355 356 357 356 356 356 355 354 354 355 354 354 353 354 354 354 353 352 351 351 352 353 353 355 353 353 353 351 352 351 351 350 350 350 351 351 350 347 344 343 343
335 335 339 341 340 342 343 342 341 341 340 341 340 337 336 334 334 337 339 345 350 351 351 349 351 353 353 353 354 355 354 352 352 352 351 352 353 354 354 355 354 355 356 356 356 355 356 356 357 357 356 356 357 356 356 356 356 356 356 355 355 355 354 354 354 354 354 354 354 355 355 355 355 353 352 354 354 355 354 354 353 352 353 352 351 351 351 351 351 351 350 350 349 346 343 344 344
335 335 335 336 338 341 341 341 341 341 340 341 340 338 337 334 332 335 338 342 349 351 351 351 350 351 352 352 354 355 353 351 351 351 352 352 352 353 354 354 354 354 356 355 355 355 355 355 356 357 356 356 357 356 356 357 356 356 355 354 353 353 354 354 354 354 353 353 355 355 355 355 355 355 355 356 356 356 355 354 352 352 353 353 352 351 352 352 351 350 350 349 348 346 343 344 344
335 333 333 332 332 335 341 340 341 340 340 341 340 334 337 337 332 335 337 340 346 349 350 350 350 350 350 351 353 354 352 351 351 350 351 351 351 353 353 355 355 354 356 355 355 355 355 355 356 357 357 356 358 356 356 356 356 355 355 355 354 354 354 354 354 354 354 353 354 355 355 354 354 354 354 355 356 355 354 354 352 352 352 353 352 351 352 353 352 351 349 348 348 345 344 345 342
332 331 332 332 324 327 339 339 341 341 339 342 340 331 337 342 335 335 335 339 345 347 349 349 348 350 349 350 353 353 352 351 350 350 350 350 351 352 353 354 354 354 356 355 355 354 354 355 356 357 357 356 357 357 356 356 355 355 356 356 356 355 355 354 354 354 354 352 353 354 355 355 354 354 352 351 352 353 353 353 352 353 353 353 352 352 352 352 352 351 349 349 348 345 344 344 342
330 324 323 329 323 324 337 338 341 341 339 341 339 332 340 346 340 336 335 339 343 345 348 348 347 349 348 350 353 351 351 351 349 349 349 350 351 352 352 353 354 354 355 355 354 354 353 354 355 356 357 356 355 356 356 355 355 355 356 357 356 356 356 355 355 355 354 354 354 355 356 356 354 354 353 350 350 351 353 354 353 352 353 352 351 352 352 352 352 352 350 349 347 346 344 343 343
328 325 317 321 322 322 331 338 340 339 339 340 338 338 345 351 346 338 335 338 341 343 345 347 347 347 348 350 352 351 351 352 350 349 349 350 351 351 351 352 353 353 355 355 354 353 353 353 355 356 357 357 354 355 356 354 355 356 356 358 357 357 357 357 357 356 356 356 356 356 356 356 354 354 352 350 349 349 351 354 354 353 353 353 351 351 352 352 352 352 350 348 346 346 344 344 343
322 325 320 321 324 322 324 333 339 337 340 341 340 345 348 350 348 339 336 337 338 341 343 345 346 347 349 350 351 351 351 352 351 349 349 351 351 351 351 351 352 353 353 354 354 353 353 353 354 355 357 357 354 355 357 354 354 356 357 358 357 357 357 358 358 357 356 356 356 356 356 355 355 354 352 350 349 348 349 353 356 355 355 354 353 353 353 352 352 351 349 346 345 345 345 344 342
317 319 319 319 323 323 323 330 337 336 340 341 339 343 346 348 346 340 336 336 338 340 341 343 344 345 347 349 351 352 351 353 352 348 349 350 350 350 351 350 352 353 353 353 353 353 353 353 354 355 356 357 354 354 356 355 354 356 357 357 357 357 357 358 358 357 357 356 356 356 355 355 355 355 353 351 349 348 349 354 358 358 357 356 354 353 353 353 352 350 348 346 345 346 344 341 338
323 323 321 319 319 322 328 333 336 337 339 341 340 340 344 347 345 342 337 335 338 340 341 340 342 343 345 348 350 351 352 352 350 348 350 350 351 351 351 351 351 352 353 352 353 353 353 354 353 354 355 356 355 353 355 356 355 356 356 356 356 356 356 357 356 356 356 355 355 355 355 355 355 356 355 352 350 350 350 353 356 358 358 356 354 352 353 352 351 348 347 346 346 346 344 340 339
328 327 324 322 320 321 331 336 335 337 336 338 343 342 344 348 347 344 338 336 337 340 341 340 341 343 343 346 348 350 352 351 350 349 350 351 351 352 351 351 352 352 353 353 354 353 353 354 353 354 355 356 355 353 354 356 355 355 355 354 355 355 355 356 356 356 355 355 356 356 355 355 356 356 356 354 352 352 352 354 356 358 357 356 354 353 353 350 348 346 346 345 343 344 343 340 341
329 326 323 321 321 323 332 336 335 336 335 336 345 344 345 348 348 345 340 338 337 338 342 341 341 343 343 345 346 349 351 349 350 350 350 350 351 352 352 352 352 353 354 353 355 354 354 355 353 353 355 356 356 354 354 355 355 355 355 355 354 355 355 355 357 356 355 356 357 357 356 356 357 357 356 354 353 353 354 355 357 358 357 355 354 353 351 347 345 345 345 342 340 341 340 338 339
328 326 322 319 323 325 330 336 336 335 334 337 343 343 344 348 347 346 341 339 339 338 341 342 342 344 344 343 344 347 349 349 351 351 350 350 351 353 351 352 352 353 355 354 355 354 354 355 354 354 355 356 357 356 355 355 355 356 355 355 355 355 355 355 356 357 356 356 357 358 358 358 359 358 356 354 354 355 355 356 357 357 356 355 351 349 347 345 344 344 343 341 339 341 339 337 339
326 326 321 317 324 323 321 331 338 338 336 339 343 341 344 349 348 348 344 341 341 338 339 342 342 343 343 343 342 346 348 350 352 352 351 350 351 353 352 353 353 353 355 355 356 356 354 355 355 354 355 357 358 357 356 355 355 357 356 355 355 355 355 355 356 356 357 356 357 357 357 358 359 358 356 355 356 356 356 356 356 355 354 352 348 346 346 345 344 342 341 340 339 341 341 340 341
325 327 323 320 325 325 323 331 337 336 335 340 341 332 336 346 347 349 348 345 343 340 339 341 343 343 343 342 342 344 347 349 352 353 352 351 350 352 352 353 353 354 355 355 356 357 356 355 355 355 355 357 358 358 357 356 356 358 357 356 355 355 355 356 356 357 358 357 357 356 356 356 358 358 358 359 358 356 356 355 354 352 351 348 346 346 347 345 341 339 341 342 339 339 341 340 341
320 327 328 326 328 329 330 332 332 326 326 337 337 323 327 343 346 348 349 348 347 345 344 343 344 345 343 344 344 343 345 347 351 353 351 351 350 351 353 354 355 354 355 355 355 357 357 356 356 356 355 356 358 358 357 357 358 358 357 356 356 355 356 357 357 358 359 357 357 357 357 357 358 360 361 360 358 356 354 353 351 349 348 347 347 346 346 345 342 340 341 341 339 339 339 338 341
315 324 330 330 331 330 329 328 326 319 321 335 338 328 327 335 340 348 349 349 352 350 349 347 348 348 343 344 344 343 344 346 349 351 351 351 349 350 353 354 355 354 354 355 355 357 358 357 356 357 357 356 356 358 358 357 358 359 356 356 357 355 356 357 357 357 357 357 357 358 359 359 360 361 360 358 357 355 353 353 351 348 347 347 346 345 344 342 341 341 341 339 340 341 339 338 342
315 326 330 331 331 329 329 326 322 323 328 334 334 335 330 327 336 350 349 348 352 352 351 349 349 349 345 345 346 344 344 345 347 349 350 351 349 350 353 355 355 354 355 355 355 356 358 358 358 358 359 358 356 358 358 358 358 358 356 356 358 357 355 356 356 356 356 357 359 359 360 360 360 360 358 356 355 353 352 353 352 349 347 346 345 344 341 339 339 341 342 339 340 342 337 336 341
320 328 329 330 331 330 332 326 321 324 325 322 327 330 327 325 338 352 352 346 348 351 351 351 351 351 346 345 346 346 346 346 347 347 349 350 350 349 352 355 356 355 355 354 355 356 357 359 359 359 360 360 358 357 358 358 358 358 357 357 358 358 357 356 356 356 357 358 360 360 359 359 359 358 357 355 354 353 351 352 351 349 347 344 343 341 337 338 341 341 342 340 339 340 335 334 338
324 327 328 329 332 331 332 327 322 321 320 318 323 325 323 325 333 343 346 342 344 351 351 352 355 353 350 347 347 347 347 347 347 346 348 350 349 349 352 355 356 355 355 354 355 356 358 360 360 360 361 361 360 358 358 359 359 359 358 359 359 359 358 359 358 358 358 358 358 358 356 356 356 356 356 353 352 353 352 351 350 348 347 345 343 339 337 340 342 341 341 340 339 338 335 332 335
325 326 326 326 329 332 332 330 324 318 317 320 323 323 323 324 329 336 342 343 347 354 353 353 356 354 352 350 346 347 348 348 348 347 347 349 349 349 351 356 357 355 355 355 355 356 358 360 361 361 361 361 361 360 358 359 360 360 360 360 360 360 360 361 360 359 359 357 355 355 356 355 354 354 355 353 351 352 351 350 349 348 347 346 343 340 339 341 341 340 339 338 338 339 339 336 334
324 326 324 319 320 324 322 322 322 317 316 320 324 324 321 320 328 339 347 351 349 352 352 352 352 351 352 350 347 347 348 349 348 347 348 348 350 351 351 354 357 356 356 355 355 356 359 361 362 362 362 361 361 361 360 359 359 360 361 361 361 361 362 361 360 359 358 357 355 355 356 355 354 353 354 353 351 351 350 348 347 347 347 345 342 340 340 340 339 339 338 337 338 340 340 338 336
324 322 318 313 313 317 316 315 318 317 316 319 323 322 317 320 334 344 349 352 348 348 350 349 348 349 350 351 350 348 349 349 348 348 348 348 351 352 351 353 356 357 356 356 355 356 359 361 362 363 362 361 361 361 361 360 359 360 360 360 361 362 362 361 359 358 358 356 356 356 355 354 354 353 353 353 351 350 349 348 347 345 345 345 342 339 340 340 339 339 338 338 339 340 340 338 337
322 317 313 312 313 315 317 317 317 317 318 320 322 322 316 318 334 347 348 347 346 346 346 346 347 347 348 350 350 348 348 349 349 349 349 350 351 353 351 352 356 357 356 356 356 356 358 361 363 363 362 362 361 361 362 361 360 359 360 360 361 362 362 360 358 358 358 356 355 356 354 353 354 352 353 353 351 351 350 349 348 346 345 345 344 341 339 340 339 339 339 339 339 339 338 338 337
322 322 319 314 313 315 316 316 315 317 318 319 319 321 315 317 333 347 344 344 345 345 345 346 347 346 346 348 349 348 347 348 350 350 351 353 352 351 352 352 354 357 357 357 356 357 358 360 362 363 363 362 361 361 362 362 362 361 361 360 361 362 361 360 359 357 357 355 354 355 354 353 354 352 352 353 352 351 351 349 348 348 347 345 345 342 340 339 338 339 339 339 339 338 337 337 336
321 325 320 313 316 318 315 317 317 315 317 317 315 318 324 332 346 349 341 342 345 345 346 346 347 347 345 346 350 349 347 347 349 351 354 358 355 350 350 352 354 356 357 357 356 356 358 359 361 362 362 362 362 362 362 362 362 362 362 361 361 362 361 361 360 358 357 356 354 355 355 354 355 353 352 353 352 350 350 349 348 348 348 346 344 342 340 338 338 339 340 339 339 338 337 338 336
320 319 314 317 324 323 314 314 316 315 316 318 315 317 326 331 339 345 343 342 343 345 346 345 347 350 347 348 350 349 348 349 350 353 354 358 359 353 351 352 354 355 357 357 356 356 357 359 361 362 362 363 362 362 362 362 363 362 362 362 362 362 362 361 360 358 358 358 354 354 356 356 355 354 352 353 352 350 349 349 347 347 348 347 344 342 340 339 338 339 340 339 339 338 338 338 337
320 314 316 323 327 324 318 314 315 316 317 317 314 315 320 320 326 341 346 342 342 343 344 343 346 350 349 350 350 349 350 352 352 354 353 355 359 357 352 352 354 356 356 357 356 356 357 358 361 362 362 363 363 363 363 362 363 363 363 363 362 362 361 360 360 359 358 359 357 356 357 357 356 355 353 352 351 350 349 349 348 346 346 347 345 342 341 340 338 339 339 339 339 338 338 338 337
322 319 324 324 317 315 315 314 314 316 316 315 314 315 318 318 326 338 341 343 345 344 344 343 343 348 350 349 350 350 351 354 354 354 354 354 355 355 353 352 354 355 356 357 357 357 358 359 361 362 362 363 363 363 363 363 363 363 363 364 363 362 361 360 360 360 359 359 358 357 357 358 357 356 354 353 351 350 351 349 348 347 346 346 345 343 341 340 339 340 339 339 339 338 338 337 336
325 323 325 324 318 315 314 314 315 316 316 316 317 316 317 325 338 343 344 345 346 343 346 345 341 345 348 348 351 352 352 354 353 352 353 354 352 352 352 352 353 356 356 357 357 357 358 359 361 362 362 363 363 363 363 363 363 363 364 364 364 363 362 361 360 360 360 359 359 358 357 357 357 356 355 354 352 349 350 350 348 348 347 346 345 343 341 341 340 340 339 339 339 338 338 338 336
320 318 317 317 319 319 317 315 314 314 316 317 319 316 317 334 348 347 348 347 343 344 345 345 344 344 345 347 350 351 352 353 351 350 350 351 352 351 351 352 354 356 357 357 357 357 358 360 362 362 363 363 364 364 363 363 364 364 364 364 364 363 362 361 360 361 361 360 359 359 358 357 357 357 356 355 353 351 349 350 349 348 347 346 345 343 341 341 340 340 340 340 339 338 337 337 338
321 317 316 316 317 315 314 314 314 313 313 315 317 315 320 340 346 343 351 349 341 343 346 345 345 343 343 346 349 350 351 351 350 349 348 349 353 352 351 352 353 356 358 357 357 357 357 359 361 362 363 363 363 364 364 364 365 364 364 364 364 364 363 362 361 361 361 360 360 359 358 358 357 357 356 355 354 352 350 350 349 349 348 347 345 343 342 342 341 340 340 340 340 339 337 336 338
Wind_Speed
13 13 14 12 11 9 4 1 1 1 1 2 1 1 4 5 1 2 3 4 6 7 11 12 12 9 9 9 11 11 10 2 2 4 3 7 21 23 20 25 28 25 25 24 24 24 25 25 25 27 27 28 27 26 25 24 24 24 24 22 21 21 20 20 20 20 20 19 19 19 19 19 18 18 17 17 17 17 16 16 16 15 15 14 13 12 12 12 12 12 12 12 11 11 11 10 10
15 14 14 12 9 6 1 2 0 1 1 2 1 1 3 5 3 5 4 5 9 11 13 13 13 14 14 11 12 15 12 7 8 6 5 18 24 20 25 27 27 28 27 26 26 26 26 26 27 29 28 28 27 25 24 24 24 24 23 22 21 20 20 19 19 19 19 19 19 19 18 18 18 17 16 16 16 16 16 15 15 14 14 13 12 12 12 11 11 11 11 11 10 10 9 9 9
17 15 14 13 7 3 1 1 0 2 1 2 0 1 3 4 6 7 8 11 12 14 14 13 14 12 14 13 11 12 7 7 13 10 9 21 19 21 29 26 27 29 28 28 26 27 27 27 30 30 28 28 26 24 24 23 23 23 22 22 21 20 19 19 19 18 18 18 18 18 18 17 17 16 15 15 15 15 14 14 14 13 13 12 11 11 11 11 10 10 10 9 9 9 8 8 8
17 15 15 11 2 1 1 1 1 2 1 2 0 3 4 5 6 10 11 14 12 12 12 12 12 9 14 16 10 11 10 7 13 12 10 17 20 27 30 27 29 28 27 28 27 29 28 29 31 29 29 28 26 24 23 24 23 22 21 21 20 19 19 19 18 18 18 17 17 17 17 17 16 15 14 15 14 14 13 13 13 12 12 11 10 10 10 10 9 9 9 8 8 7 7 7 7
16 13 12 8 1 0 1 0 1 1 1 2 1 4 7 5 12 10 8 13 12 12 11 9 10 10 12 12 7 7 10 9 12 15 14 20 28 32 29 29 29 27 26 26 27 28 28 29 30 29 28 27 27 25 23 24 22 21 21 21 20 19 19 18 18 17 17 17 16 16 16 16 15 14 14 14 13 13 13 12 12 11 11 10 10 9 9 8 8 8 8 7 6 6 6 6 6
14 10 7 4 0 1 1 2 2 3 4 2 1 4 7 6 12 12 12 14 13 14 13 11 12 13 10 9 7 7 11 12 12 16 20 26 31 32 30 30 28 26 25 24 26 27 28 29 28 28 27 26 26 25 23 22 21 20 20 20 20 19 19 18 18 17 17 16 15 15 15 15 14 13 13 13 12 12 12 12 11 11 11 10 10 9 9 8 8 7 6 5 5 5 5 5 5
13 7 3 2 1 2 2 4 3 2 6 5 4 4 9 8 9 14 16 14 13 14 13 13 14 13 9 7 7 11 18 16 14 19 26 30 31 32 31 29 27 26 24 24 26 27 27 27 27 27 26 26 25 23 22 21 20 20 19 19 19 19 18 18 17 17 16 15 15 15 15 14 13 12 12 12 12 11 11 11 11 10 10 10 10 10 10 9 8 8 7 5 4 4 5 5 5
12 4 1 1 1 2 2 5 4 4 8 6 4 4 10 10 8 11 15 13 12 13 14 15 14 13 10 7 6 12 23 21 21 27 31 32 32 31 29 28 28 27 25 26 27 26 26 25 26 25 24 24 23 22 21 20 19 19 19 19 19 18 18 17 16 16 15 15 14 14 14 14 13 12 11 11 11 10 10 10 10 10 10 10 10 11 11 11 10 9 8 7 6 5 6 5 4
8 3 2 2 2 3 3 6 7 7 10 8 5 5 7 10 8 9 13 14 12 13 15 14 13 14 10 11 9 10 20 25 29 31 32 32 31 30 28 29 29 28 27 28 28 26 25 25 25 24 24 23 23 22 21 20 19 20 19 19 19 18 18 17 15 15 14 14 14 14 14 13 12 11 10 10 10 9 9 9 9 9 9 10 11 12 12 12 11 10 9 9 8 7 8 7 5
4 2 2 1 1 3 4 7 7 4 8 8 7 6 5 5 7 11 15 15 13 14 16 13 14 17 13 12 8 9 21 28 31 30 31 31 30 29 28 28 28 29 29 29 29 27 26 25 24 24 24 23 22 21 21 21 20 20 19 19 18 17 17 15 15 14 14 14 13 13 13 12 11 10 9 9 9 8 8 8 8 8 9 10 10 11 12 12 11 10 10 11 10 10 10 10 9
2 2 1 1 1 4 4 6 5 5 8 6 5 7 5 4 10 14 15 15 14 16 17 14 15 17 14 10 6 14 27 29 29 29 29 30 29 29 29 28 28 30 32 31 30 28 26 25 24 24 23 23 22 21 21 21 20 20 19 19 18 17 16 15 14 14 13 13 13 12 12 11 10 9 9 8 8 7 7 7 6 8 9 10 10 11 11 11 11 10 10 11 11 11 11 11 11
2 3 2 2 2 3 4 6 5 7 8 6 5 4 5 6 10 14 15 15 15 16 14 12 13 14 13 9 5 17 29 27 27 28 28 28 28 29 28 28 28 31 32 32 31 28 26 25 24 23 23 22 22 22 21 21 20 20 19 18 17 16 15 15 14 13 13 12 12 11 11 10 9 8 7 7 7 6 6 6 5 7 9 10 10 10 10 11 10 9 9 10 11 11 11 12 11
2 4 2 3 3 3 6 8 4 7 5 4 5 4 6 7 9 13 15 15 15 13 13 14 14 13 11 8 7 14 22 26 29 27 27 28 28 28 27 28 28 30 32 32 31 29 27 26 24 23 22 22 21 21 21 20 20 19 19 18 17 15 15 14 14 13 13 12 11 10 10 9 8 7 6 6 6 5 5 4 4 5 7 9 9 10 10 10 9 9 8 9 10 12 12 13 12
3 3 2 2 2 3 6 6 2 6 4 4 4 5 7 7 8 13 14 14 13 13 14 16 15 13 12 9 8 8 15 27 31 29 28 27 28 27 27 27 28 29 31 32 30 29 27 26 24 24 22 22 21 21 20 20 20 19 18 17 16 15 15 14 14 13 12 11 10 9 9 8 8 7 5 5 5 5 4 3 4 4 6 8 9 9 10 10 9 9 9 8 9 11 12 13 12
5 2 2 2 4 5 7 5 2 6 4 5 4 5 9 8 10 13 12 12 12 13 14 15 13 10 11 12 9 9 18 29 29 30 30 27 27 26 27 28 28 29 30 31 30 29 27 26 25 24 23 22 22 21 21 20 19 19 18 17 16 16 15 14 13 12 11 11 10 9 9 8 7 7 5 4 4 4 3 4 4 4 5 6 7 8 9 10 10 10 10 9 9 10 10 11 10
4 1 1 2 4 5 6 4 4 6 3 5 5 5 9 10 12 11 12 12 11 13 11 10 10 9 13 13 13 19 27 29 28 32 30 26 26 26 26 27 28 27 28 29 29 28 26 25 25 24 24 23 23 22 21 20 19 18 18 17 16 16 15 14 13 12 11 10 9 9 8 8 7 7 5 4 4 3 3 4 4 4 4 4 6 7 8 9 10 10 10 10 9 8 8 9 8
3 2 1 2 3 4 5 2 4 6 5 6 6 5 8 11 11 10 13 14 13 13 10 9 10 13 16 16 22 29 30 29 30 32 28 25 26 24 24 26 27 25 26 27 28 27 25 25 25 25 24 23 23 22 21 21 19 18 18 17 16 15 14 13 12 12 11 10 10 9 9 8 7 6 5 5 4 3 3 4 4 3 3 3 5 6 8 9 10 10 10 10 10 9 7 7 5
2 3 1 3 3 4 6 6 1 8 8 6 7 7 9 12 11 10 13 13 12 11 10 12 14 15 19 24 30 30 30 31 31 29 25 23 23 21 22 24 25 25 26 26 26 26 24 24 25 25 24 24 23 22 22 21 20 19 18 18 16 15 14 13 13 12 12 11 11 10 9 8 6 6 4 4 4 3 3 3 3 3 3 3 4 5 6 7 8 9 9 9 10 10 8 7 4
3 2 3 3 5 6 9 11 4 5 8 8 9 10 9 11 12 10 12 13 13 10 10 15 17 18 22 26 30 29 29 30 30 28 25 23 21 20 21 23 23 25 26 26 26 26 25 25 25 26 25 24 24 23 23 22 21 20 19 18 17 16 15 14 14 13 12 11 11 10 9 8 7 6 5 5 4 3 3 3 1 2 3 3 4 5 5 5 6 7 8 9 10 10 8 8 5
4 4 3 5 7 7 10 12 2 3 6 9 8 10 10 9 9 8 12 15 14 11 11 14 18 20 22 22 25 28 28 28 29 28 26 23 22 22 22 23 24 25 26 27 27 27 27 26 26 27 26 26 24 23 23 22 22 20 19 18 17 17 15 15 14 13 12 11 10 9 8 8 7 7 6 6 6 5 2 2 1 1 2 2 3 4 5 5 5 7 8 9 10 10 8 7 6
4 5 6 6 6 8 11 9 2 2 4 8 7 9 11 9 7 9 14 13 11 13 15 17 20 22 22 21 22 25 24 24 26 26 25 22 21 22 22 23 25 25 26 27 27 27 27 26 27 27 26 27 25 24 24 23 23 21 20 19 18 17 16 15 14 13 12 10 9 8 8 7 7 7 6 6 8 6 3 2 3 2 0 1 2 3 5 5 6 7 7 8 9 8 7 5 5
3 8 10 7 6 8 10 6 4 4 2 5 7 8 10 9 6 10 16 11 10 14 19 21 21 21 22 21 20 21 21 20 22 23 23 22 22 22 22 24 24 25 26 27 27 27 28 27 27 27 28 27 25 24 23 23 23 21 21 20 18 17 16 15 14 13 12 10 9 9 9 8 7 7 7 7 6 5 5 5 4 3 1 0 1 3 4 5 7 7 7 7 8 7 5 4 4
5 8 11 9 9 8 8 7 5 7 5 4 6 7 9 8 5 10 15 12 13 19 23 24 21 20 22 22 20 19 18 18 19 21 23 23 24 24 24 25 25 26 27 27 28 28 28 28 28 28 29 28 26 24 22 22 24 21 20 19 18 17 16 16 15 13 12 12 12 12 11 9 7 7 8 8 6 5 7 7 5 4 2 1 1 2 3 4 5 6 6 6 6 5 3 3 3
9 9 11 12 11 9 10 8 3 6 8 7 7 7 8 8 4 6 8 9 20 24 23 24 21 21 22 20 19 19 18 19 21 24 26 25 26 28 27 26 26 26 26 27 28 29 29 29 29 29 30 29 26 25 22 21 23 21 19 18 17 16 16 16 15 14 13 13 13 13 11 9 8 8 8 7 6 6 6 7 7 6 3 1 1 1 2 3 4 3 4 5 5 4 2 4 3
14 13 13 13 12 11 10 6 5 6 7 8 9 6 7 9 6 3 5 17 25 24 21 23 21 20 19 18 19 18 17 19 21 25 26 24 27 28 26 26 27 26 26 27 28 29 30 29 29 29 30 29 26 25 24 21 22 22 20 19 18 16 15 15 15 15 14 14 13 13 12 10 10 8 6 6 7 7 7 6 6 6 4 1 2 2 2 2 2 2 2 4 4 3 1 4 5
14 17 13 13 14 11 8 10 8 8 5 6 8 7 6 8 8 2 9 22 25 23 22 22 21 20 18 17 18 17 17 18 19 23 24 24 27 27 26 27 27 27 27 29 28 28 30 29 30 30 29 29 26 25 25 22 22 22 22 21 20 19 17 15 16 17 16 15 14 14 13 11 10 7 5 6 7 7 7 6 5 5 4 2 3 4 4 4 3 2 2 2 1 1 0 3 4
10 14 14 16 13 10 11 12 7 6 8 8 6 7 8 8 7 4 11 21 24 24 21 20 19 19 18 16 16 15 16 18 20 23 22 22 25 26 26 28 28 28 29 30 29 29 30 30 30 29 29 28 27 26 25 24 23 23 22 22 21 20 18 16 17 18 17 16 15 14 13 11 10 7 5 6 6 6 7 6 5 5 3 3 5 4 4 3 3 2 1 1 1 1 1 2 3
13 12 12 16 15 13 13 10 7 5 7 11 8 7 10 8 5 6 13 20 24 24 21 19 18 16 17 16 15 13 13 18 23 22 19 20 23 26 26 28 29 28 30 31 30 30 30 31 30 29 29 29 27 25 24 24 24 23 21 22 21 19 18 17 17 18 17 16 15 15 15 13 11 8 7 7 6 6 7 7 7 7 5 6 6 5 4 2 3 2 1 1 1 3 2 1 3
15 13 7 9 11 13 12 10 9 7 7 13 10 6 8 7 6 10 15 18 23 24 21 19 17 14 14 14 12 12 13 17 21 20 21 22 23 27 28 29 30 29 31 31 31 31 30 31 30 29 30 29 28 25 24 24 24 23 21 21 21 19 18 17 17 17 17 16 15 17 17 16 13 9 9 9 8 7 7 7 7 8 8 7 7 5 4 3 3 2 1 1 0 3 1 2 3
12 12 6 5 4 5 10 10 10 10 10 15 11 4 6 7 8 14 15 17 21 21 19 18 16 14 14 13 10 12 13 14 17 19 24 25 24 28 28 30 31 29 30 31 32 32 29 30 30 29 30 30 29 26 25 24 23 23 21 20 20 20 18 17 17 16 17 16 16 17 17 16 15 12 12 11 11 10 9 8 8 8 8 7 7 6 5 5 4 4 3 1 1 4 2 1 2
9 10 6 3 2 3 8 10 11 11 11 16 12 4 6 6 7 15 14 16 20 18 17 17 15 15 13 13 12 12 12 11 18 22 26 27 26 28 29 31 32 30 31 31 33 34 30 30 30 29 30 30 29 26 25 25 24 24 21 21 20 20 19 18 17 15 16 17 15 16 16 15 15 15 14 12 12 12 11 9 9 9 8 7 7 7 7 6 5 5 3 1 3 4 3 2 3
7 7 5 1 1 6 8 11 14 11 11 17 13 4 6 5 5 15 14 14 19 17 16 16 15 15 14 13 13 13 11 12 19 23 26 29 27 27 29 31 31 31 32 30 33 34 31 31 31 29 30 31 30 26 25 25 24 24 21 20 20 19 20 19 18 15 15 16 15 15 15 14 15 14 13 12 12 12 11 9 9 9 8 7 8 8 8 7 6 5 4 3 4 5 4 2 4
6 5 4 3 5 8 7 11 15 12 11 14 11 4 5 4 4 11 15 14 18 16 16 17 15 15 14 12 13 13 10 11 15 19 26 30 28 28 29 30 31 33 33 31 31 33 32 31 31 30 30 31 31 26 25 25 24 23 21 20 20 20 19 19 18 17 16 17 16 15 16 15 15 15 13 12 12 12 11 10 10 9 8 8 8 9 8 7 6 5 4 4 5 5 3 2 3
5 4 5 6 8 8 5 9 13 12 13 13 11 6 7 8 7 11 15 15 16 15 16 17 15 14 13 12 13 12 11 11 12 16 25 30 29 29 30 30 30 33 35 33 31 32 32 32 32 32 31 31 31 27 24 25 24 22 21 21 21 20 19 19 18 18 17 17 17 17 17 16 15 15 13 12 11 11 11 10 10 9 8 8 8 9 8 7 6 5 5 6 6 5 3 3 3
7 6 5 8 9 8 6 8 10 12 15 13 12 8 8 11 11 12 15 15 14 14 15 15 14 14 13 12 13 12 12 12 11 16 24 30 30 29 32 31 29 31 35 34 32 33 31 31 32 32 33 31 31 29 24 24 25 23 22 20 19 19 19 19 17 17 17 17 18 18 17 17 17 16 13 11 11 10 10 10 10 9 8 8 8 9 8 7 6 5 5 7 5 3 3 4 3
11 11 8 7 7 7 9 7 10 14 12 11 12 9 8 10 11 12 15 14 13 13 14 14 13 14 13 12 12 13 13 12 13 18 22 28 30 30 32 32 29 29 33 34 33 34 31 30 32 31 34 34 31 31 26 23 25 24 23 20 18 19 19 18 18 17 17 17 17 17 18 17 17 16 14 12 10 10 9 9 10 10 9 8 8 8 7 5 5 5 6 5 4 3 4 4 4
14 13 9 8 7 8 11 9 12 15 10 8 11 10 9 9 8 11 15 14 12 12 13 13 13 14 14 13 13 14 14 12 15 20 21 26 30 30 30 31 30 29 32 34 33 35 33 30 32 31 32 35 33 33 30 26 26 25 24 24 21 20 20 19 19 17 17 18 18 18 18 17 16 16 14 13 11 9 8 9 11 12 11 9 7 7 5 5 6 7 6 3 4 5 5 4 5
14 12 9 8 7 8 10 7 11 15 8 7 11 9 8 10 7 9 15 14 12 13 13 13 15 15 14 14 15 15 13 12 15 17 19 23 28 30 30 29 31 30 31 35 34 35 34 30 31 31 31 35 35 35 33 29 28 27 26 26 24 21 21 21 20 19 17 17 18 18 17 16 16 16 14 13 12 10 9 11 13 13 11 9 6 5 5 7 8 7 5 4 4 5 5 4 4
12 10 8 8 8 7 10 7 12 14 7 6 11 9 7 10 9 8 15 14 11 13 13 13 15 16 15 15 14 14 13 12 14 16 17 20 26 30 30 28 32 32 31 34 35 35 35 32 31 31 31 33 35 35 35 32 29 29 28 27 25 22 22 22 21 20 18 18 18 18 17 17 17 15 14 13 12 11 11 12 13 12 11 9 7 9 10 9 8 7 6 5 5 4 4 3 3
11 9 7 8 9 8 8 5 10 13 8 8 12 8 5 9 8 7 11 12 11 14 15 14 15 15 16 17 15 15 16 15 15 17 17 18 22 28 29 28 31 32 30 32 34 35 37 36 33 33 32 31 34 35 34 33 30 27 26 25 24 22 21 22 21 20 19 19 19 19 18 17 17 16 15 14 13 12 11 11 11 11 11 10 11 13 13 10 8 8 8 7 6 4 0 2 4
12 13 10 8 11 12 10 7 4 9 9 10 12 7 4 8 10 7 7 9 10 13 14 13 13 15 16 17 16 16 17 16 16 17 18 16 18 24 29 30 31 32 31 32 35 36 37 38 36 35 34 31 32 34 33 32 30 26 24 23 23 21 20 22 24 22 22 21 19 20 21 18 17 17 15 14 13 13 12 10 10 12 14 14 13 13 14 11 9 10 10 9 8 4 2 1 4
10 15 16 13 12 13 12 11 6 5 5 6 10 5 4 7 12 11 7 7 9 10 12 12 12 13 14 15 15 16 16 16 16 17 18 17 18 23 27 30 31 31 33 34 36 36 36 38 37 35 35 33 31 33 33 32 31 29 27 26 26 24 21 23 27 26 25 24 21 20 21 19 18 17 15 14 14 14 13 12 13 14 16 16 13 12 15 13 11 12 10 10 8 6 5 4 5
7 11 16 17 17 15 13 13 8 4 5 7 9 5 3 6 10 12 11 11 10 9 10 12 11 11 13 14 14 15 15 15 16 17 18 19 19 20 23 29 32 31 33 35 35 35 35 36 37 35 36 36 33 32 34 34 32 31 30 28 28 28 24 22 26 27 24 22 21 20 20 19 17 16 15 14 15 15 14 15 16 16 16 16 14 13 15 14 12 13 11 10 9 8 8 4 6
7 9 13 16 18 18 17 14 9 3 4 8 11 7 4 4 7 10 12 13 13 10 10 11 11 12 13 14 15 16 16 15 15 15 17 19 19 20 23 29 33 33 33 34 34 35 36 36 38 36 35 37 36 33 33 35 35 33 32 29 27 28 27 23 23 24 22 20 21 20 19 19 17 16 16 16 16 16 16 17 19 18 16 17 16 15 16 14 11 13 14 12 10 9 8 6 6
9 10 12 14 16 18 16 12 8 5 3 5 8 8 5 4 6 7 10 13 14 14 13 12 12 13 14 14 14 16 16 16 16 16 17 18 20 24 28 31 33 34 34 34 34 35 37 37 38 37 34 35 37 36 34 35 36 34 33 30 27 27 27 25 22 22 21 20 21 21 20 19 18 17 18 18 18 18 18 20 21 19 17 18 16 15 15 14 13 16 15 13 11 10 8 7 7
9 12 12 11 13 14 13 11 7 6 5 5 9 11 6 4 5 7 8 10 12 13 13 11 11 12 13 13 14 15 15 15 16 17 17 18 24 29 31 32 34 35 36 36 36 35 36 37 37 37 36 35 37 38 37 35 35 35 33 31 29 27 26 25 23 22 22 21 22 22 22 22 21 21 21 20 19 21 21 21 22 21 20 20 17 13 14 14 16 17 14 12 11 10 8 8 7
9 11 12 10 10 9 8 7 5 6 6 5 11 16 11 5 5 8 8 9 11 11 11 10 10 11 12 12 14 14 14 13 14 16 16 18 25 32 32 32 34 36 36 36 36 35 36 37 38 38 38 36 36 38 39 37 35 35 34 33 31 29 28 26 25 25 24 23 23 23 25 26 24 23 24 22 22 23 22 21 23 23 22 21 17 14 14 16 17 15 13 11 10 11 10 8 8
11 8 8 7 6 5 5 4 5 7 7 5 8 12 11 7 6 7 8 10 12 12 12 14 14 13 13 13 13 14 13 13 14 15 15 15 19 25 28 30 33 35 34 35 36 36 36 36 38 38 38 38 36 36 38 38 37 36 35 34 33 31 30 28 27 28 27 26 24 24 26 29 27 24 24 24 25 25 23 22 24 24 23 21 19 15 14 18 19 14 12 12 11 13 12 9 9
10 8 6 6 4 4 6 5 4 6 7 7 7 8 8 6 6 11 12 12 13 13 13 17 19 17 15 14 14 13 12 13 14 13 15 15 15 17 21 25 30 33 34 36 36 36 35 36 38 38 38 39 38 36 37 38 38 37 36 35 34 32 31 30 29 29 29 29 26 25 29 31 30 26 25 27 27 26 25 24 24 25 24 22 19 15 13 17 19 15 14 15 14 14 13 10 10
9 8 7 7 5 5 7 5 5 5 5 8 10 8 7 5 5 14 16 15 16 16 15 17 19 20 17 15 15 15 14 14 13 13 14 15 16 16 19 24 28 32 35 36 36 36 35 35 38 39 38 39 39 37 37 37 38 38 37 36 35 33 33 32 30 29 30 30 29 28 30 32 31 29 29 30 29 28 27 26 25 24 23 22 20 17 15 16 15 15 16 18 17 16 14 13 12
10 9 7 7 7 6 6 5 4 5 4 7 11 8 5 5 7 14 17 15 15 15 15 16 17 19 18 15 16 16 15 14 12 13 13 14 17 17 19 25 29 32 35 36 36 36 36 35 38 39 38 39 39 38 38 37 37 38 37 36 35 34 33 32 32 31 30 31 31 31 31 31 31 29 30 32 30 29 29 26 26 25 23 22 21 19 18 16 14 15 18 18 18 16 15 14 14
8 8 8 9 8 5 4 4 4 4 4 5 7 6 4 5 7 13 15 15 14 13 14 14 14 18 19 16 15 16 15 13 12 12 12 13 15 16 19 25 28 30 34 35 36 36 36 36 38 39 39 39 40 39 38 37 37 37 37 37 36 35 34 33 33 32 31 32 33 33 32 32 31 29 30 32 31 30 30 27 26 26 25 23 23 21 19 18 16 17 19 19 19 18 16 15 14
4 7 10 9 7 5 3 4 4 4 5 4 4 4 3 4 5 8 13 15 15 13 13 13 11 15 20 17 15 15 14 13 13 13 13 13 13 15 20 24 27 29 33 35 36 37 37 37 37 39 39 39 39 39 38 37 36 36 36 37 36 35 35 34 34 33 32 32 34 34 33 33 33 32 31 32 31 29 29 29 27 27 26 24 24 23 21 20 19 19 20 19 20 19 18 18 16
4 6 7 2 2 4 3 4 4 4 6 4 5 7 5 5 5 6 12 15 16 15 14 14 12 13 18 17 16 16 15 15 15 15 14 13 13 15 19 24 29 32 34 36 37 37 38 38 38 39 39 39 40 39 38 37 37 37 37 37 36 36 37 36 35 35 33 32 34 34 33 34 34 33 33 32 32 30 29 30 30 28 27 26 25 24 23 23 22 21 21 20 20 19 19 20 20
9 5 3 4 4 5 4 4 4 5 7 4 5 8 6 6 5 6 12 13 14 15 15 15 14 12 15 17 18 19 17 15 15 15 14 13 14 15 19 25 29 32 34 36 37 38 38 37 38 39 40 40 40 39 38 38 38 37 36 37 37 37 37 37 35 35 34 33 34 35 35 35 34 34 34 33 32 31 30 31 32 30 29 29 27 26 25 26 25 24 23 23 22 20 19 21 21
11 8 5 5 5 5 6 6 3 4 5 4 5 7 5 6 5 6 11 12 14 14 14 15 16 14 15 15 16 17 17 15 15 15 14 14 16 17 21 27 29 32 34 35 36 37 37 36 36 38 38 39 39 39 38 37 37 37 35 36 37 37 38 38 36 36 36 35 36 37 36 36 35 34 34 34 33 32 31 32 33 32 31 31 30 29 28 29 28 26 25 25 25 24 23 22 21
10 9 9 8 4 4 6 7 6 5 4 4 5 5 5 5 5 8 10 12 15 16 15 15 15 15 17 17 17 16 16 16 16 15 15 16 16 18 23 28 30 30 32 34 36 37 37 36 36 37 38 38 39 39 39 38 37 36 35 36 37 38 38 38 37 36 36 37 37 37 37 36 36 35 34 34 34 34 33 32 33 33 33 33 33 32 31 31 30 28 26 26 26 27 26 24 22
11 9 11 10 6 4 5 7 7 7 5 5 5 4 6 5 5 8 10 11 14 15 14 13 12 14 16 16 19 19 18 18 18 17 17 16 15 16 21 26 27 28 31 35 37 37 37 37 37 37 38 38 39 40 40 38 36 36 36 36 37 38 39 38 37 37 37 38 38 38 37 36 36 36 35 35 35 35 35 33 33 34 34 35 34 34 34 33 32 30 29 28 28 29 29 28 25
Wind_Direction
150 154 157 151 155 144 118 151 284 229 203 283 237 2 123 149 271 285 205 153 94 79 86 113 145 140 127 115 105 67 41 105 130 127 124 141 148 146 147 148 148 145 144 144 144 144 144 146 144 144 142 139 136 133 134 134 134 134 134 133 131 129 125 121 118 117 118 119 118 116 114 111 110 109 109 108 108 106 104 102 98 94 91 90 88 87 85 83 81 79 78 76 74 74 76 77 78
153 148 158 161 149 130 131 181 302 287 246 298 163 112 130 143 165 194 193 99 86 91 85 93 104 103 108 102 92 72 44 29 79 87 94 133 141 144 148 149 149 146 143 143 145 144 144 147 145 145 143 141 137 135 136 136 137 136 136 135 134 132 128 123 120 120 121 121 120 117 115 113 111 111 110 110 108 106 106 103 99 95 92 90 88 86 82 79 77 77 76 75 74 73 75 78 79
165 153 163 162 149 155 249 159 321 306 309 323 79 116 125 182 183 157 128 101 92 93 92 93 89 93 96 78 69 82 76 45 84 90 109 135 140 146 147 147 149 145 142 143 144 143 145 148 147 146 145 142 137 136 139 138 137 137 137 136 135 132 129 125 123 123 124 123 121 119 116 114 113 112 112 111 108 107 106 103 99 95 92 89 87 85 80 78 77 77 74 74 73 71 73 76 79
176 168 173 161 135 179 114 41 262 315 301 280 257 135 177 202 126 95 102 107 101 94 94 98 91 89 87 90 94 91 102 85 97 108 126 144 145 147 147 146 147 143 143 144 144 144 146 150 150 148 147 144 139 139 141 138 137 136 136 137 136 134 131 128 127 127 126 125 122 120 118 116 114 114 113 111 108 107 106 102 99 95 91 86 83 81 79 77 74 74 72 72 73 72 76 77 79
172 173 174 151 81 157 124 226 199 242 243 235 182 161 206 177 110 108 114 107 103 101 98 97 96 91 81 94 110 97 113 112 113 117 123 143 145 145 146 145 143 141 142 143 143 143 144 148 149 150 149 146 142 141 142 139 137 136 136 137 137 136 134 131 130 129 128 126 123 121 119 118 116 116 114 110 109 107 106 102 98 93 89 83 78 73 70 69 68 69 67 67 70 75 82 86 85
165 162 165 149 306 246 210 237 208 242 244 187 229 203 184 142 122 135 120 107 105 103 101 94 95 94 79 80 87 102 125 122 122 125 127 141 145 144 146 143 140 140 142 143 143 142 142 145 148 150 149 147 144 142 144 142 139 137 138 139 138 137 136 134 133 132 130 127 125 123 121 120 119 117 113 111 111 109 107 103 97 92 86 78 69 61 58 61 64 66 67 69 71 81 88 89 93
169 147 153 187 258 230 218 244 213 249 258 196 209 214 141 129 134 129 118 117 107 102 105 102 104 97 84 90 87 104 119 124 127 134 136 141 145 144 145 143 141 140 144 146 144 143 143 144 147 149 149 146 144 145 149 147 144 141 141 142 141 140 138 136 135 134 132 130 128 126 125 124 122 119 116 115 114 112 108 102 96 90 81 70 63 59 59 63 67 71 70 72 73 81 90 92 97
180 155 162 214 236 229 233 257 222 198 240 209 202 206 133 137 146 129 124 118 102 105 107 107 107 90 83 90 92 112 115 119 127 135 138 140 143 144 146 145 142 143 149 150 145 145 144 145 146 147 147 146 145 148 151 150 149 145 144 145 143 142 141 139 138 136 135 133 132 130 129 126 124 121 120 117 115 113 108 103 97 89 77 65 63 62 62 63 66 70 69 68 71 75 83 92 101
181 167 171 227 249 269 266 279 262 212 205 181 184 199 136 138 137 117 113 103 102 108 105 113 107 94 99 96 96 111 109 119 128 134 139 142 145 146 147 147 144 145 150 151 147 147 147 148 147 147 147 147 149 151 151 150 150 148 147 148 146 145 144 144 142 140 138 137 136 134 132 129 127 123 120 117 115 113 110 105 97 88 74 64 65 64 63 65 63 63 65 66 69 74 73 76 79
165 184 192 209 207 292 281 282 274 180 151 153 163 152 117 125 114 101 100 103 112 106 102 106 100 104 114 104 100 110 116 129 132 135 143 145 146 145 146 147 145 145 150 151 149 150 151 150 148 148 148 149 152 152 152 150 149 149 149 150 148 147 148 150 148 144 143 141 141 139 134 131 129 123 119 118 118 117 113 103 93 85 72 62 65 65 64 67 65 61 66 70 70 73 73 71 69
150 218 206 184 209 278 268 280 270 120 115 133 126 121 120 108 97 99 103 106 109 108 110 103 101 113 114 105 102 120 127 135 136 140 145 144 144 144 145 146 146 149 152 152 151 151 151 151 149 150 150 151 152 152 152 150 150 151 151 151 150 150 152 154 151 147 146 146 145 141 137 133 130 127 122 122 124 121 112 100 86 81 70 59 61 64 63 66 65 63 68 72 71 74 77 74 70
167 213 190 233 227 258 263 277 249 124 118 134 119 112 120 118 111 116 117 115 119 121 123 116 117 117 111 112 120 134 137 139 141 143 144 142 143 144 145 145 149 155 155 152 151 152 152 152 153 153 153 153 153 153 153 151 152 153 152 153 152 153 154 155 152 151 150 148 148 146 140 135 133 133 127 127 126 121 115 100 81 71 63 55 60 63 64 66 65 66 69 71 73 76 77 73 71
195 214 185 250 215 234 265 265 210 123 115 114 112 126 113 114 121 122 123 128 132 127 121 123 128 119 113 120 133 146 143 142 144 146 145 144 145 146 145 145 149 154 154 152 151 151 153 155 156 156 155 154 154 154 153 153 153 154 155 155 155 156 157 156 154 153 153 151 151 149 144 139 138 140 135 131 128 124 118 103 87 66 54 51 57 63 65 66 66 69 70 72 76 78 76 73 71
195 214 171 262 274 282 277 264 167 107 105 105 125 164 127 111 122 122 126 132 126 126 131 135 132 115 118 132 140 154 143 144 148 148 146 144 145 146 144 143 145 150 153 154 152 152 154 156 158 158 158 156 156 154 153 154 154 155 156 157 159 160 160 159 158 156 155 155 155 152 147 145 144 145 142 134 132 128 120 110 95 64 48 45 51 62 64 65 70 72 72 73 79 83 79 75 73
188 214 185 283 314 307 296 280 120 98 115 139 154 153 125 116 123 120 124 122 116 129 133 137 134 116 142 154 149 153 144 147 147 142 143 144 145 145 144 143 145 150 155 156 154 155 156 158 160 160 161 160 158 157 156 156 156 157 158 160 162 162 162 161 161 160 159 158 157 155 150 148 148 148 146 140 139 131 120 113 87 58 44 40 49 60 63 68 73 74 75 76 82 87 81 73 67
196 195 147 310 304 299 296 297 92 103 125 132 116 118 123 117 116 113 119 118 122 140 135 148 154 132 152 154 143 147 148 149 143 139 142 142 142 144 145 144 145 151 156 158 157 157 158 160 161 162 163 163 162 160 159 160 160 161 162 163 165 164 165 165 164 163 160 160 159 157 155 156 157 152 152 149 139 132 118 97 67 53 42 39 53 62 67 76 79 77 79 79 82 85 76 66 55
195 101 49 275 275 290 279 291 96 117 114 120 126 120 115 108 107 104 115 125 136 150 146 153 147 131 143 144 141 145 147 146 140 140 142 140 142 145 145 144 146 151 156 161 161 159 160 164 165 164 164 166 165 164 164 164 164 165 166 166 167 168 169 169 167 164 162 162 163 162 164 162 157 154 157 157 143 129 115 84 64 57 35 47 67 72 75 82 84 80 81 82 78 72 66 65 52
175 93 211 241 256 267 268 293 39 131 131 152 153 126 111 112 120 121 126 135 139 147 144 136 131 128 132 136 142 144 145 145 141 142 143 143 147 147 147 150 151 153 157 162 163 162 165 170 169 166 166 168 169 169 168 168 168 169 170 170 171 172 173 173 171 169 169 168 169 169 169 163 157 163 165 168 166 151 128 99 80 63 48 71 89 88 81 80 83 78 75 73 70 66 55 51 43
183 166 222 234 243 241 255 279 312 119 142 154 148 139 131 128 141 149 145 142 139 141 139 132 127 125 129 138 145 146 148 148 145 144 145 150 153 150 150 154 155 155 159 163 166 167 170 174 171 168 168 168 171 172 172 172 172 173 174 175 175 176 176 177 175 174 175 174 175 173 169 165 166 179 181 182 195 192 148 124 107 63 65 84 108 108 92 75 71 69 63 60 61 59 44 38 44
192 193 235 236 247 254 259 264 287 109 151 142 147 141 129 141 160 164 150 143 142 134 128 130 129 132 138 144 147 148 152 150 147 147 150 155 155 153 154 156 158 159 162 164 166 168 172 175 172 173 170 168 174 175 175 176 175 176 178 179 179 179 179 180 179 178 179 178 180 175 171 173 173 185 188 187 203 212 194 162 232 2 65 82 114 115 105 80 63 64 58 57 55 51 49 43 47
186 196 230 226 246 264 265 266 131 153 167 133 143 129 129 163 177 155 149 146 146 139 136 138 138 141 144 145 147 150 153 152 152 153 154 157 155 155 158 159 160 161 162 164 167 168 172 175 173 175 171 169 177 176 178 179 178 179 181 183 183 182 183 182 182 183 183 181 182 178 183 191 186 192 196 197 204 212 229 244 267 282 34 84 105 106 100 72 63 65 56 55 50 50 59 44 24
198 213 231 226 239 262 266 261 166 160 132 126 147 139 141 160 169 157 158 164 159 148 145 143 143 147 147 147 148 152 156 155 157 158 158 159 156 157 160 159 160 161 162 166 168 170 173 173 174 175 170 172 178 178 180 180 181 182 183 186 186 187 188 185 186 186 185 186 190 189 198 209 202 202 206 206 204 211 243 263 267 266 265 160 111 98 91 70 72 67 58 59 54 59 63 37 354
212 222 229 231 233 254 272 256 194 147 147 170 148 141 141 144 177 172 173 183 150 140 144 143 145 149 149 148 149 156 158 158 162 160 162 163 157 159 162 160 163 164 164 167 167 169 172 173 176 175 171 175 178 178 182 182 183 184 184 186 187 189 190 190 189 188 189 193 197 198 206 212 205 209 206 203 199 201 231 247 249 253 261 197 151 92 90 79 76 64 61 68 58 63 52 4 333
205 223 213 221 221 228 255 253 166 141 176 168 121 129 150 150 175 184 181 156 130 134 142 141 144 149 151 153 153 159 159 162 167 163 166 168 159 160 164 162 165 165 163 165 166 169 171 173 177 176 174 176 177 178 184 185 182 182 186 186 189 192 191 192 190 190 195 198 200 200 207 210 207 211 203 201 200 196 213 227 230 233 238 211 195 106 89 72 68 70 73 75 66 69 28 359 21
201 219 202 208 216 215 250 261 155 172 199 152 130 146 173 158 154 209 128 116 125 135 140 140 145 151 155 159 157 159 162 167 168 164 168 168 159 161 162 161 163 163 163 165 167 169 172 175 176 177 177 176 176 179 184 185 178 181 188 188 191 193 196 195 188 194 200 198 202 201 205 210 211 212 209 210 203 198 205 213 214 211 219 204 181 158 120 116 110 124 103 95 89 83 24 31 73
205 216 195 196 210 197 221 250 202 179 182 147 148 154 167 151 136 159 114 118 129 135 138 144 147 151 158 163 161 162 165 170 169 165 169 166 160 162 162 162 164 165 166 167 170 170 173 177 177 178 179 176 177 181 183 182 179 184 190 188 192 195 200 200 190 199 204 201 204 201 201 206 210 212 212 207 197 192 189 195 196 191 209 195 167 156 153 172 176 171 154 143 104 37 307 71 66
238 225 196 195 200 180 201 234 221 176 164 157 166 152 140 137 135 145 122 123 129 132 140 146 147 154 160 166 165 165 169 173 170 165 169 168 162 163 164 164 167 169 168 168 172 173 174 177 177 180 180 176 178 183 183 182 182 189 190 189 192 195 199 199 195 202 205 204 204 200 198 199 207 207 192 183 180 178 173 179 185 187 201 179 165 167 179 195 188 190 208 243 358 57 129 89 17
281 258 211 202 195 187 195 202 200 203 172 156 166 156 134 139 170 163 133 128 131 135 144 148 151 156 161 170 167 164 176 175 170 167 172 171 165 166 167 167 169 170 168 169 174 174 175 177 177 181 181 178 180 183 184 183 185 190 192 191 193 192 194 196 197 202 204 203 200 197 195 195 205 202 181 172 171 176 180 187 183 178 178 174 182 196 210 214 197 230 282 296 43 116 122 51 355
281 276 243 219 207 196 189 180 184 194 176 158 156 155 147 166 190 158 139 134 136 139 147 151 156 158 162 172 165 166 182 176 171 171 173 174 170 167 169 169 170 169 169 172 174 175 177 176 178 182 182 181 181 182 184 186 187 190 192 191 190 187 191 196 197 201 203 203 200 198 196 194 198 195 187 181 176 184 196 199 193 186 184 188 204 215 219 214 220 242 200 267 103 164 166 357 339
281 283 269 249 262 215 188 179 184 186 178 159 148 152 177 201 188 153 142 139 139 143 150 155 158 160 165 170 166 175 186 177 173 172 173 176 174 169 170 170 172 172 171 173 175 176 177 177 179 182 184 184 182 183 184 186 188 190 189 186 188 189 190 193 195 198 201 203 203 200 199 199 198 198 204 202 193 201 210 210 211 207 203 208 219 223 222 220 226 219 193 212 179 180 195 319 312
292 295 279 233 333 271 206 185 183 191 180 155 143 151 187 211 168 144 146 145 142 145 152 156 160 162 166 167 167 178 191 185 174 172 173 178 176 172 171 171 174 175 172 174 176 178 179 178 180 181 185 185 183 185 185 187 188 188 187 185 189 192 191 193 193 196 196 196 199 197 200 203 201 203 212 215 208 210 217 218 220 219 219 227 233 232 228 223 221 221 215 191 181 188 196 228 313
288 288 285 221 199 263 234 189 185 191 173 151 143 154 180 206 167 147 154 150 143 149 155 158 163 164 164 165 166 177 193 186 174 173 174 177 177 174 174 173 174 174 175 176 176 178 180 180 180 180 185 185 184 187 186 187 188 188 190 188 192 194 193 193 192 196 195 195 201 203 204 204 202 207 216 218 213 212 214 219 226 229 232 237 242 240 231 221 216 224 233 209 194 191 190 224 342
271 252 258 241 204 245 240 184 189 186 160 148 143 149 165 189 210 160 159 155 147 153 157 160 164 164 163 162 166 177 187 183 178 179 175 175 177 178 179 177 176 176 178 178 176 178 180 180 181 181 185 186 185 187 185 186 188 188 189 190 195 196 193 193 192 197 201 203 208 209 208 208 207 210 217 217 213 215 213 219 233 238 240 239 240 236 229 224 224 230 231 205 183 166 174 260 331
268 252 249 251 224 238 230 181 190 172 149 154 151 152 162 175 203 171 162 162 154 155 159 162 165 164 165 162 169 176 180 183 183 185 177 174 178 181 183 182 178 178 180 181 180 181 181 181 180 181 185 187 187 186 183 186 187 186 187 190 194 193 192 195 196 197 202 208 210 212 213 213 212 211 218 218 214 220 217 220 237 242 238 235 235 235 232 229 233 237 213 185 172 166 194 247 275
242 240 237 246 240 247 229 187 183 161 150 161 161 166 171 170 188 177 166 165 159 160 161 163 165 164 166 163 169 175 180 187 188 189 180 174 179 181 181 184 179 177 179 182 183 183 184 183 181 181 184 186 188 186 184 185 185 184 185 186 190 192 195 197 200 201 202 208 211 216 220 217 214 213 219 221 218 225 220 217 231 237 232 234 239 238 234 232 236 230 196 172 165 182 219 239 255
235 240 233 228 236 253 246 214 171 158 158 167 161 172 179 167 184 179 167 165 162 164 163 164 166 164 168 166 168 173 179 188 189 191 181 173 179 179 177 183 181 177 179 181 182 184 186 186 182 181 182 185 187 185 186 184 180 183 187 187 190 195 197 196 202 205 203 208 212 215 219 217 214 215 221 224 225 229 224 219 226 228 226 232 240 237 234 236 223 194 170 159 175 212 228 242 257
239 248 249 238 231 236 244 233 176 159 160 172 160 169 180 166 185 179 162 164 164 166 168 169 165 163 170 170 169 174 179 184 185 191 186 175 178 178 176 182 184 181 180 181 181 183 186 187 184 183 182 184 185 184 186 185 181 182 186 191 194 194 194 196 202 206 202 206 212 211 213 215 215 217 222 227 230 230 222 215 218 222 223 230 238 235 230 209 184 167 156 168 200 209 217 245 260
240 250 261 261 252 246 252 234 168 159 162 175 160 163 178 168 187 181 159 164 170 170 174 173 167 165 170 174 173 175 179 178 177 187 191 180 177 179 179 180 183 183 181 182 182 183 186 188 187 186 183 183 185 185 186 187 187 187 187 191 195 197 198 200 203 206 202 204 211 211 209 214 217 219 224 231 231 227 219 212 214 218 222 228 222 199 184 167 160 159 165 173 181 197 211 223 224
239 247 256 265 269 273 272 238 166 164 167 169 165 168 178 169 178 176 162 168 175 173 176 175 171 167 169 176 175 172 175 176 176 182 191 187 178 179 182 181 183 184 182 182 183 185 188 191 191 189 186 184 184 185 186 188 190 192 193 192 195 199 203 205 206 206 205 207 212 213 211 214 217 220 227 229 223 221 222 218 217 220 221 215 184 162 156 152 153 166 179 180 187 209 224 213 196
237 242 242 252 261 269 277 247 172 169 165 157 166 172 175 166 169 181 176 175 174 176 181 178 173 171 172 176 176 171 173 177 179 179 186 191 182 179 182 183 183 183 182 181 183 185 188 192 193 192 189 187 185 185 188 191 191 194 197 197 196 199 205 208 208 207 209 209 210 214 215 215 217 220 224 221 213 216 221 217 212 208 200 183 164 155 155 157 166 177 185 192 193 194 235 225 204
228 236 240 242 248 251 260 270 210 168 166 158 157 167 193 169 168 189 198 181 174 177 182 182 177 174 173 175 176 174 173 176 179 180 183 189 187 182 182 183 183 183 183 184 185 186 188 191 192 193 192 189 187 187 189 190 190 191 194 195 196 200 204 202 202 205 207 208 208 211 213 214 217 219 220 217 213 210 206 200 191 182 171 163 160 161 167 175 173 171 179 186 180 166 141 131 172
223 227 235 243 251 255 260 273 269 156 174 178 150 162 239 184 172 187 197 185 182 181 182 186 182 173 172 174 177 177 176 177 177 179 182 187 190 186 183 183 183 185 187 188 188 188 189 190 191 192 193 192 190 189 190 189 188 190 190 189 192 199 199 193 196 201 203 205 206 205 206 211 217 216 211 208 203 193 185 181 177 172 165 164 171 174 180 189 181 172 177 178 171 172 177 124 116
231 218 225 238 252 262 264 267 262 162 185 203 169 160 223 194 182 186 189 190 192 192 190 188 182 175 174 173 177 179 179 180 179 180 182 185 189 186 183 184 184 187 189 190 191 189 188 189 190 191 193 194 193 190 190 188 187 189 191 190 192 196 197 193 195 198 200 203 203 201 203 207 214 211 198 189 186 179 177 182 181 176 171 173 181 182 183 190 187 180 178 172 170 174 182 150 104
236 219 215 225 239 252 258 262 262 215 177 194 186 160 144 199 205 189 182 186 195 202 203 195 183 180 179 174 176 180 181 181 180 182 182 185 188 187 185 185 186 188 189 190 190 189 189 189 190 192 193 194 194 192 190 190 189 189 191 194 193 193 197 197 195 196 200 202 200 199 201 204 207 203 191 181 180 179 181 188 187 182 179 179 184 185 185 189 188 179 174 172 177 181 186 173 133
231 230 224 220 226 239 249 257 266 254 218 208 194 161 146 219 220 192 177 179 193 203 204 199 186 182 182 178 174 177 183 182 180 183 184 184 188 189 187 186 187 188 188 190 190 190 191 190 190 192 193 194 195 194 191 190 191 190 191 194 194 194 198 200 197 196 198 200 198 198 199 199 194 189 185 181 183 188 186 188 190 189 188 183 183 187 187 190 187 176 172 178 187 193 197 191 170
224 232 237 233 228 230 237 243 256 257 247 233 198 173 172 230 205 186 184 184 193 200 202 196 186 182 183 183 180 177 180 183 184 186 184 183 187 189 187 185 186 187 188 190 191 191 191 190 190 191 194 195 194 195 194 191 191 191 191 193 195 196 197 199 198 196 195 195 195 196 197 195 188 182 186 185 185 191 189 189 192 193 192 188 185 189 187 185 183 182 186 192 190 187 188 194 185
220 228 238 246 241 235 235 228 225 249 252 224 199 187 183 214 211 185 187 190 181 182 192 194 190 189 185 185 187 183 180 181 184 188 188 185 185 187 185 184 186 187 187 188 189 191 191 190 190 191 194 196 194 195 195 193 192 191 192 194 195 196 196 195 196 196 196 194 194 196 195 192 186 181 187 188 185 189 191 193 193 191 193 193 191 196 197 190 188 192 199 195 184 177 175 186 184
217 220 227 241 252 252 254 241 207 229 243 217 209 205 194 207 221 193 185 182 173 172 183 189 194 198 195 191 190 188 184 181 181 185 189 186 182 184 185 184 185 185 185 186 188 189 190 190 190 190 193 195 195 195 195 195 194 193 194 195 196 196 193 193 194 195 195 194 195 195 189 186 184 181 185 186 185 189 192 193 193 190 193 195 194 200 205 199 196 198 197 190 182 179 178 186 188
212 212 211 217 234 232 233 243 217 222 238 211 213 234 222 213 200 186 183 178 176 180 183 188 193 196 197 195 192 188 184 185 184 181 185 187 184 183 185 183 182 184 186 186 187 188 189 189 189 189 191 194 195 196 196 195 195 195 195 196 197 196 194 194 194 194 194 193 194 189 181 180 182 181 182 185 187 192 194 193 193 192 193 195 197 200 198 192 196 199 194 188 185 184 183 187 188
207 208 201 199 208 217 218 231 228 230 247 218 216 234 231 234 205 183 184 184 184 188 188 189 192 193 195 193 190 189 185 186 188 184 184 187 186 185 185 183 182 185 187 186 186 187 187 188 189 189 191 193 195 196 196 196 196 196 196 196 197 197 196 195 195 196 194 193 193 188 182 183 186 185 186 190 193 194 195 195 194 193 192 193 196 200 198 195 200 203 196 188 187 190 190 192 195
210 208 204 208 206 210 209 206 213 226 240 223 220 222 200 219 214 184 183 188 188 190 191 191 193 192 194 192 188 188 188 187 187 188 186 184 188 186 183 184 184 185 186 185 186 186 186 187 189 189 190 192 194 195 196 196 196 197 196 197 197 197 198 197 197 198 197 196 194 191 189 190 192 192 193 197 197 195 196 196 195 197 196 195 196 199 201 202 202 197 193 190 191 193 194 197 203
208 197 210 222 207 203 214 206 213 224 236 226 219 215 181 199 206 182 182 188 184 184 188 194 196 191 192 193 188 187 189 188 184 184 184 182 186 185 182 185 186 184 185 185 186 185 185 187 188 189 190 192 194 195 196 197 197 197 197 197 197 197 197 197 198 200 200 199 196 193 194 196 198 199 198 198 198 196 198 197 195 198 200 198 198 199 199 201 198 191 188 191 195 194 194 197 202
183 195 219 224 198 204 234 237 247 248 243 232 212 232 218 214 228 192 184 188 187 186 187 195 198 184 185 190 189 188 187 186 184 184 185 182 180 184 185 185 184 184 185 186 187 185 185 186 187 188 190 191 194 195 197 197 197 197 198 197 197 196 197 197 197 199 199 198 196 196 198 200 202 202 198 197 198 198 201 201 197 198 200 199 199 199 200 201 200 196 191 192 195 195 195 198 200
188 199 211 202 204 227 223 226 238 236 241 230 210 237 224 200 243 211 187 187 189 193 193 200 201 179 178 184 185 186 184 182 185 187 190 185 179 184 186 184 184 185 186 187 187 186 186 187 187 187 188 190 194 195 197 198 198 198 198 197 197 196 197 198 198 198 198 196 195 198 200 201 203 203 200 199 199 200 203 203 200 199 199 200 201 202 203 204 205 204 200 196 194 195 199 201 202
219 231 184 157 209 223 208 217 211 209 235 246 230 242 220 190 217 201 187 181 179 187 193 203 206 181 173 179 181 182 182 182 186 188 192 192 188 187 186 186 185 185 186 186 186 185 186 188 187 187 189 191 193 195 197 198 199 199 198 198 197 197 198 199 199 198 197 197 198 199 200 202 203 203 202 201 201 203 204 203 202 201 200 202 204 205 206 206 207 207 207 204 199 198 201 203 204
219 246 234 205 208 200 200 222 217 197 220 232 234 246 233 208 206 188 186 177 174 185 190 201 206 188 174 175 178 181 181 182 187 189 192 196 196 193 189 188 187 184 184 183 183 185 186 187 187 188 190 191 192 195 197 198 199 199 199 198 197 197 198 200 199 198 198 199 201 202 202 202 203 203 203 203 203 204 204 203 203 203 202 203 205 206 206 207 207 208 210 210 206 202 202 203 205
203 221 226 227 224 189 192 210 215 204 198 201 217 236 248 232 198 191 199 188 185 191 189 194 199 186 178 174 174 182 185 185 187 188 193 196 197 196 192 190 188 183 181 181 183 185 185 186 186 187 188 190 192 195 197 198 199 198 198 198 198 198 199 200 200 199 199 200 202 204 204 203 203 203 203 204 204 203 204 204 204 204 204 205 205 206 205 206 207 208 210 212 210 207 207 207 208
194 206 219 224 220 200 199 211 215 211 208 209 213 240 257 245 205 199 204 198 198 195 185 188 188 179 182 181 176 180 184 187 188 188 192 194 191 191 191 189 186 180 179 181 183 184 185 185 186 186 188 190 193 195 197 197 198 198 199 199 198 199 200 200 200 200 201 203 204 204 204 204 203 203 204 205 205 205 205 205 205 206 206 206 206 205 205 205 206 207 208 210 210 210 210 210 210